Location: Kerberlivit
(48.2787°N, 4.5413°W)
Time: 09:16:02
(UTC+00:00)

Cosmos 2100 Rocket - Pass Details

Date: 18 February 2020
Orbit: 955 x 1002 km, 82.9° (Epoch: 27 March)

Event Time Altitude Azimuth Distance (km) Brightness Sun altitude
Rises 05:18:19 0° 352° (N) 3,690 7.0 -21.0°
Reaches altitude 10° 05:20:52 10° 354° (N) 2,732 6.3 -20.6°
Maximum altitude 05:27:07 74° 80° (E) 1,009 4.2 -19.6°
Drops below altitude 10° 05:33:15 10° 165° (SSE) 2,686 6.4 -18.6°
Sets 05:35:45 0° 167° (SSE) 3,624 7.1 -18.1°
